Weather History for 16134 - December, 2013

Change the Weather History Date:

Sunday, December 22, 2013

  Actual Average Record
Temperature  
Mean Temperature 34 °F -  
Max Temperature 34 °F 29 °F - ()
Min Temperature 32 °F 21 °F - ()
Degree Days  
Heating Degree Days 32    
Moisture  
Dew Point 31 °F    
Average Humidity 89    
Maximum Humidity 100    
Minimum Humidity 81    
Precipitation  
Precipitation 0.00 in 0.07 in - ()
Sea Level Pressure  
Sea Level Pressure 30.41 in    
Wind  
Wind Speed 16 mph ()    
Max Wind Speed 32 mph    
Max Gust Speed -    
Visibility 0.0 miles    
Events Fog    
T = Trace of Precipitation, MM = Missing Value Source: Averaged Metar Reports

Daily Weather History Graph

Daily Weather History Graph

Search for Another Location

Airport or City:

Trip Planner

Search our weather history database for the weather conditions in past years. The results will help you decide how hot, cold, wet, or windy it might be!

Date:

Astronomy

Dec. 22, 2013 Rise Set
Actual Time 7:49 AM CET 4:41 PM CET
Civil Twilight 7:16 AM CET 5:15 PM CET
Nautical Twilight 6:39 AM CET 5:51 PM CET
Astronomical Twilight 6:04 AM CET 6:27 PM CET
Moon 9:48 PM CET (12/22) 10:28 AM CET (12/22)
Length of Visible Light 9h 58m
Length of Day
8h 51m
Waning Gibbous, 79% of the Moon is Illuminated
Dec 22
Waning Gibbous
Dec 25
Last Quarter
Jan 1
New
Jan 8
First Quarter
Jan 16
Full

Hourly Weather History & Observations

Time (CET) Temp. Windchill Dew Point Humidity Pressure Visibility Wind Dir Wind Speed Gust Speed Precip Events Conditions
12:00 AM 35 °F - 32 °F 85%  in 0 mi West 8.1 mph - - Fog Heavy Fog
12:55 AM 33.8 °F 28.6 °F 32.0 °F 93% 30.51 in 0.0 mi WSW 5.8 mph - N/A Fog Fog
1:00 AM 35 °F - 32 °F 86%  in 0 mi WSW 5.8 mph - - Fog Heavy Fog
1:55 AM 33.8 °F 29.6 °F 32.0 °F 93% 30.48 in 0.0 mi WSW 4.6 mph - N/A Fog Fog
2:00 AM 35 °F - 32 °F 86%  in 0 mi WSW 4.6 mph - - Fog Heavy Fog
2:55 AM 33.8 °F 27.7 °F 32.0 °F 93% 30.48 in 0.0 mi WSW 6.9 mph - N/A Fog Fog
3:00 AM 35 °F - 32 °F 86%  in 0 mi WSW 6.9 mph - - Fog Heavy Fog
3:55 AM 33.8 °F 25.8 °F 33.8 °F 100% 30.48 in 0.0 mi WSW 10.4 mph - N/A Fog Fog
4:00 AM 35 °F - 33 °F 89%  in 0 mi WSW 10.4 mph - - Fog Heavy Fog
4:55 AM 33.8 °F 23.5 °F 32.0 °F 93% 30.45 in 0.0 mi WSW 16.1 mph - N/A Fog Fog
5:00 AM 35 °F - 32 °F 86%  in 0 mi WSW 16.1 mph - - Fog Heavy Fog
5:55 AM 33.8 °F 22.8 °F 32.0 °F 93% 30.45 in 0.0 mi WSW 18.4 mph - N/A Fog Fog
6:00 AM 34 °F - 32 °F 89%  in 0 mi WSW 18.4 mph - - Fog Heavy Fog
6:55 AM 33.8 °F 21.6 °F 32.0 °F 93% 30.42 in 0.0 mi WSW 23.0 mph - N/A Fog Fog
7:00 AM 34 °F - 32 °F 89%  in 0 mi WSW 23.0 mph - - Fog Heavy Fog
7:55 AM 33.8 °F 21.0 °F 32.0 °F 93% 30.42 in 0.0 mi WSW 25.3 mph - N/A Fog Fog
8:00 AM 33 °F - 32 °F 92%  in 0 mi WSW 25.3 mph - - Fog Heavy Fog
8:55 AM 33.8 °F 21.6 °F 32.0 °F 93% 30.42 in 0.0 mi WSW 23.0 mph - N/A Fog Fog
9:00 AM 34 °F - 32 °F 90%  in 0 mi WSW 23.0 mph - - Fog Heavy Fog
9:55 AM 33.8 °F 22.2 °F 32.0 °F 93% 30.45 in 0.0 mi WSW 20.7 mph - N/A Fog Fog
10:00 AM 34 °F - 31 °F 86%  in 0 mi WSW 20.7 mph - - Fog Heavy Fog
10:55 AM 33.8 °F 23.2 °F 32.0 °F 93% 30.45 in 0.0 mi WSW 17.3 mph - N/A Fog Fog
11:00 AM 34 °F - 32 °F 88%  in 0 mi WSW 17.3 mph - - Fog Heavy Fog
11:55 AM 33.8 °F 22.2 °F 32.0 °F 93% 30.45 in 0.0 mi WSW 20.7 mph - N/A Fog Fog
12:00 PM 34 °F - 32 °F 88%  in 0 mi WSW 20.7 mph - - Fog Heavy Fog
12:55 PM 33.8 °F 21.0 °F 32.0 °F 93% 30.42 in 0.0 mi WSW 25.3 mph - N/A Fog Fog
1:00 PM 34 °F - 32 °F 88%  in 0 mi WSW 25.3 mph - - Fog Heavy Fog
1:55 PM 33.8 °F 20.3 °F 32.0 °F 93% 30.39 in 0.0 mi WSW 28.8 mph - N/A Fog Fog
2:00 PM 35 °F - 32 °F 83%  in 0 mi WSW 28.8 mph - - Fog Heavy Fog
2:55 PM 33.8 °F 22.2 °F 32.0 °F 93% 30.39 in 0.0 mi WSW 20.7 mph - N/A Fog Fog
3:00 PM 34 °F - 32 °F 88%  in 0 mi WSW 20.7 mph - - Fog Heavy Fog
3:55 PM 33.8 °F 21.9 °F 32.0 °F 93% 30.39 in 0.0 mi WSW 21.9 mph - N/A Fog Fog
4:00 PM 34 °F - 32 °F 88%  in 0 mi WSW 21.9 mph - - Fog Heavy Fog
4:55 PM 33.8 °F 20.5 °F 32.0 °F 93% 30.36 in 0.0 mi WSW 27.6 mph - N/A Fog Fog
5:00 PM 34 °F - 32 °F 89%  in 0 mi WSW 27.6 mph - - Fog Heavy Fog
5:55 PM 33.8 °F 19.6 °F 30.2 °F 87% 30.36 in 0.0 mi WSW 32.2 mph - N/A Fog Fog
6:00 PM 34 °F - 31 °F 84%  in 0 mi WSW 32.2 mph - - Fog Heavy Fog
6:55 PM 33.8 °F 20.3 °F 30.2 °F 87% 30.33 in 0.0 mi WSW 28.8 mph - N/A Fog Fog
7:00 PM 33 °F - 30 °F 85%  in 0 mi WSW 28.8 mph - - Fog Heavy Fog
7:55 PM 33.8 °F 20.3 °F 30.2 °F 87% 30.33 in 0.5 mi WSW 28.8 mph - N/A Fog Fog
8:00 PM 33 °F - 29 °F 81%  in 0 mi WSW 28.8 mph - - Fog Heavy Fog
8:55 PM 33.8 °F 20.8 °F 30.2 °F 87% 30.33 in 0.2 mi WSW 26.5 mph - N/A Fog Fog
9:00 PM 33 °F - 30 °F 83%  in 0 mi WSW 26.5 mph - - Fog Heavy Fog
9:55 PM 33.8 °F 21.0 °F 30.2 °F 87% 30.36 in 0.0 mi WSW 25.3 mph - N/A Fog Fog
10:00 PM 33 °F - 30 °F 85%  in 0 mi WSW 25.3 mph - - Fog Heavy Fog
10:55 PM 33.8 °F 21.6 °F 30.2 °F 87% 30.36 in 0.0 mi WSW 23.0 mph - N/A Fog Fog
11:00 PM 33 °F - 30 °F 85%  in 0 mi WSW 23.0 mph - - Fog Heavy Fog
11:55 PM 32.0 °F 17.9 °F 28.4 °F 87% 30.33 in 0.0 mi WSW 28.8 mph - N/A Fog Fog